When you browse on this site, cookies collect data to enhance your experience and personalize the content and advertising you see.
Visit our Privacy Policy to learn more. By continuing to use the site, you agree to this use of cookies and data.
EN

Hourly Weather Kalpetta

Today, 9 August, Sunday

Time Temperature Precipitation Wind Pressure Humidity
00:00 +21°C° 0.5 mm 1 mps 686 mmHg 99%
01:00 +21°C° 0.5 mm 1 mps 685 mmHg 99%
02:00 +21°C° 0.5 mm 1 mps 685 mmHg 98%
03:00 +21°C° 0.2 mm 1 mps 685 mmHg 98%
04:00 +21°C° 0.2 mm 1 mps 685 mmHg 98%
05:00 +21°C° 0 mm 1 mps 684 mmHg 99%
06:00 +21°C° 0.1 mm 1 mps 685 mmHg 98%
07:00 +21°C° 0.1 mm 1 mps 685 mmHg 98%
08:00 +22°C° 0.1 mm 1 mps 685 mmHg 97%
09:00 +22°C° 0.4 mm 1 mps 685 mmHg 94%
10:00 +23°C° 0.4 mm 1 mps 686 mmHg 92%
11:00 +24°C° 0.4 mm 2 mps 686 mmHg 89%
12:00 +23°C° 1.3 mm 2 mps 685 mmHg 92%
13:00 +23°C° 1.3 mm 2 mps 685 mmHg 94%
14:00 +21°C° 1.3 mm 2 mps 684 mmHg 96%
15:00 +21°C° 3.7 mm 2 mps 684 mmHg 97%
16:00 +21°C° 3.7 mm 2 mps 684 mmHg 97%
17:00 +20°C° 3.7 mm 2 mps 684 mmHg 98%
18:00 +20°C° 3.4 mm 2 mps 684 mmHg 98%
19:00 +21°C° 3.4 mm 1 mps 685 mmHg 98%
20:00 +21°C° 3.4 mm 1 mps 685 mmHg 98%
21:00 +21°C° 0.4 mm 1 mps 685 mmHg 98%
22:00 +21°C° 0.4 mm 1 mps 685 mmHg 98%
23:00 +21°C° 0.4 mm 1 mps 686 mmHg 97%

Tomorrow, 10 August, Monday

Time Temperature Precipitation Wind Pressure Humidity
00:00 +21°C° 0 mm 1 mps 685 mmHg 97%
01:00 +18°C° 0 mm 0 mps 685 mmHg 97%
02:00 +18°C° 0 mm 0 mps 684 mmHg 97%
03:00 +18°C° 0.1 mm 0 mps 684 mmHg 97%
04:00 +18°C° 0.1 mm 0 mps 684 mmHg 97%
05:00 +18°C° 0.1 mm 0 mps 684 mmHg 97%
06:00 +19°C° 0.2 mm 0 mps 685 mmHg 97%
07:00 +19°C° 0.2 mm 0 mps 685 mmHg 97%
08:00 +21°C° 0.2 mm 1 mps 685 mmHg 97%
09:00 +21°C° 0.2 mm 1 mps 686 mmHg 97%
10:00 +21°C° 0.2 mm 1 mps 686 mmHg 96%
11:00 +22°C° 0.2 mm 1 mps 686 mmHg 96%
12:00 +22°C° 0.5 mm 1 mps 685 mmHg 95%
13:00 +23°C° 0.5 mm 1 mps 685 mmHg 93%
14:00 +23°C° 0.5 mm 1 mps 685 mmHg 92%
15:00 +23°C° 0.7 mm 1 mps 684 mmHg 93%
16:00 +23°C° 0.7 mm 1 mps 684 mmHg 94%
17:00 +22°C° 0.7 mm 1 mps 684 mmHg 94%
18:00 +22°C° 0.3 mm 1 mps 685 mmHg 95%
19:00 +22°C° 0.3 mm 1 mps 685 mmHg 96%
20:00 +19°C° 0.3 mm 0 mps 686 mmHg 96%
21:00 +19°C° 0.1 mm 0 mps 686 mmHg 96%
22:00 +19°C° 0.1 mm 0 mps 686 mmHg 97%
23:00 +19°C° 0.1 mm 0 mps 686 mmHg 97%

Day after tomorrow, 11 August, Tuesday

Time Temperature Precipitation Wind Pressure Humidity
00:00 +19°C° 0.1 mm 0 mps 685 mmHg 97%
01:00 +19°C° 0.1 mm 0 mps 685 mmHg 97%
02:00 +19°C° 0.1 mm 0 mps 685 mmHg 97%
03:00 +19°C° 0.1 mm 0 mps 685 mmHg 97%
04:00 +19°C° 0.1 mm 0 mps 684 mmHg 97%
05:00 +19°C° 0.1 mm 0 mps 684 mmHg 97%
06:00 +19°C° 0 mm 0 mps 685 mmHg 96%
07:00 +22°C° 0 mm 1 mps 685 mmHg 95%
08:00 +22°C° 0 mm 1 mps 686 mmHg 94%
09:00 +23°C° 0.1 mm 1 mps 686 mmHg 90%
10:00 +24°C° 0.1 mm 1 mps 686 mmHg 86%
11:00 +24°C° 0.1 mm 1 mps 687 mmHg 82%
12:00 +25°C° 0.5 mm 2 mps 686 mmHg 82%
13:00 +25°C° 0.5 mm 2 mps 686 mmHg 81%
14:00 +25°C° 0.5 mm 2 mps 685 mmHg 81%
15:00 +24°C° 0.5 mm 2 mps 685 mmHg 84%
16:00 +24°C° 0.5 mm 1 mps 685 mmHg 87%
17:00 +23°C° 0.5 mm 1 mps 685 mmHg 91%
18:00 +22°C° 0.1 mm 1 mps 685 mmHg 93%
19:00 +22°C° 0.1 mm 1 mps 686 mmHg 95%
20:00 +21°C° 0.1 mm 1 mps 687 mmHg 96%
21:00 +21°C° 0 mm 1 mps 687 mmHg 96%
22:00 +19°C° 0 mm 0 mps 687 mmHg 96%
23:00 +19°C° 0 mm 0 mps 687 mmHg 96%

12 August, Wednesday

Time Temperature Precipitation Wind Pressure Humidity
00:00 +18°C° 0 mm 0 mps 687 mmHg 96%
01:00 +18°C° 0 mm 0 mps 686 mmHg 96%
02:00 +20°C° 0 mm 1 mps 685 mmHg 96%
03:00 +18°C° 0 mm 0 mps 685 mmHg 96%
04:00 +18°C° 0 mm 0 mps 685 mmHg 97%
05:00 +18°C° 0 mm 0 mps 685 mmHg 97%
06:00 +19°C° 0 mm 0 mps 686 mmHg 94%
07:00 +22°C° 0 mm 1 mps 687 mmHg 91%
08:00 +22°C° 0 mm 1 mps 687 mmHg 88%
09:00 +24°C° 0.1 mm 1 mps 688 mmHg 83%
10:00 +25°C° 0.1 mm 1 mps 688 mmHg 79%
11:00 +26°C° 0.1 mm 2 mps 688 mmHg 74%
12:00 +26°C° 0.3 mm 2 mps 687 mmHg 74%
13:00 +26°C° 0.3 mm 2 mps 687 mmHg 75%
14:00 +26°C° 0.3 mm 2 mps 686 mmHg 75%
15:00 +25°C° 0.2 mm 2 mps 686 mmHg 78%
16:00 +25°C° 0.2 mm 2 mps 686 mmHg 80%
17:00 +24°C° 0.2 mm 2 mps 686 mmHg 83%
18:00 +23°C° 0 mm 1 mps 686 mmHg 88%
19:00 +22°C° 0 mm 1 mps 687 mmHg 92%
20:00 +21°C° 0 mm 1 mps 687 mmHg 97%
21:00 +21°C° 0 mm 1 mps 687 mmHg 97%
22:00 +21°C° 0 mm 1 mps 687 mmHg 97%
23:00 +21°C° 0 mm 1 mps 687 mmHg 97%

13 August, Thursday

Time Temperature Precipitation Wind Pressure Humidity
00:00 +20°C° 0 mm 1 mps 687 mmHg 96%
01:00 +18°C° 0 mm 0 mps 686 mmHg 96%
02:00 +18°C° 0 mm 0 mps 685 mmHg 96%
03:00 +18°C° 0 mm 0 mps 685 mmHg 96%
04:00 +18°C° 0 mm 0 mps 685 mmHg 96%
05:00 +18°C° 0 mm 0 mps 685 mmHg 96%
06:00 +19°C° 0 mm 0 mps 686 mmHg 92%
07:00 +20°C° 0 mm 0 mps 687 mmHg 88%
08:00 +23°C° 0 mm 1 mps 687 mmHg 84%
09:00 +25°C° 0 mm 1 mps 687 mmHg 78%
10:00 +26°C° 0 mm 1 mps 687 mmHg 71%
11:00 +28°C° 0 mm 2 mps 687 mmHg 65%
12:00 +28°C° 0.2 mm 2 mps 687 mmHg 67%
13:00 +27°C° 0.2 mm 2 mps 686 mmHg 69%
14:00 +27°C° 0.2 mm 2 mps 685 mmHg 71%
15:00 +26°C° 0.5 mm 2 mps 685 mmHg 75%
16:00 +25°C° 0.5 mm 2 mps 685 mmHg 80%
17:00 +24°C° 0.5 mm 2 mps 685 mmHg 85%
18:00 +23°C° 0 mm 1 mps 685 mmHg 89%
19:00 +22°C° 0 mm 1 mps 685 mmHg 92%
20:00 +21°C° 0 mm 1 mps 686 mmHg 96%
21:00 +21°C° 0 mm 1 mps 686 mmHg 96%
22:00 +19°C° 0 mm 0 mps 686 mmHg 95%
23:00 +19°C° 0 mm 0 mps 686 mmHg 95%

14 August, Friday

Time Temperature Precipitation Wind Pressure Humidity
00:00 +19°C° 0 mm 0 mps 686 mmHg 95%
01:00 +18°C° 0 mm 0 mps 685 mmHg 95%
02:00 +18°C° 0 mm 0 mps 684 mmHg 95%
03:00 +18°C° 0 mm 0 mps 684 mmHg 95%
04:00 +18°C° 0 mm 0 mps 684 mmHg 95%
05:00 +18°C° 0 mm 0 mps 684 mmHg 95%
06:00 +19°C° 0 mm 0 mps 685 mmHg 90%
07:00 +22°C° 0 mm 1 mps 686 mmHg 86%
08:00 +24°C° 0 mm 1 mps 686 mmHg 82%
09:00 +25°C° 0 mm 1 mps 686 mmHg 77%
10:00 +26°C° 0 mm 2 mps 686 mmHg 73%
11:00 +27°C° 0 mm 2 mps 686 mmHg 69%
12:00 +27°C° 0.3 mm 2 mps 686 mmHg 70%
13:00 +27°C° 0.3 mm 2 mps 685 mmHg 71%
14:00 +27°C° 0.3 mm 2 mps 685 mmHg 73%
15:00 +26°C° 0.3 mm 2 mps 684 mmHg 77%
16:00 +25°C° 0.3 mm 2 mps 684 mmHg 81%
17:00 +24°C° 0.3 mm 2 mps 684 mmHg 85%
18:00 +23°C° 0 mm 1 mps 684 mmHg 89%
19:00 +22°C° 0 mm 1 mps 685 mmHg 93%
20:00 +21°C° 0 mm 1 mps 685 mmHg 96%
21:00 +19°C° 0 mm 0 mps 685 mmHg 96%
22:00 +19°C° 0 mm 0 mps 685 mmHg 96%
23:00 +19°C° 0 mm 0 mps 686 mmHg 96%
Show more